Time,TemperatureF,DewpointF,PressureIn,WindDirection,WindDirectionDegrees,WindSpeedMPH,WindSpeedGustMPH,Humidity,HourlyPrecipIn,Conditions,Clouds,dailyrainin,SoftwareType,DateUTC
2016-07-25 00:00:00,76.2,73.7,29.80,SW,217,1.0,3.0,92,0.00,,,0.08,VWS V15.00,2016-07-25 04:00:00,
2016-07-25 00:06:00,76.1,73.6,29.80,SW,217,3.0,3.0,92,0.00,,,0.00,VWS V15.00,2016-07-25 04:06:00,
2016-07-25 00:11:00,76.1,73.6,29.80,SSW,192,1.0,3.0,92,0.00,,,0.00,VWS V15.00,2016-07-25 04:11:00,
2016-07-25 00:16:00,76.0,73.5,29.80,South,190,0.0,3.0,92,0.00,,,0.00,VWS V15.00,2016-07-25 04:16:00,
2016-07-25 00:21:00,76.0,73.5,29.80,South,190,0.0,3.0,92,0.00,,,0.00,VWS V15.00,2016-07-25 04:21:00,
2016-07-25 00:26:00,75.9,73.7,29.80,SSW,193,1.0,3.0,93,0.00,,,0.00,VWS V15.00,2016-07-25 04:26:00,
2016-07-25 00:31:00,75.9,73.7,29.80,SSE,164,1.0,3.0,93,0.00,,,0.00,VWS V15.00,2016-07-25 04:31:00,
2016-07-25 00:36:00,75.8,73.6,29.80,SSE,165,0.0,2.0,93,0.00,,,0.00,VWS V15.00,2016-07-25 04:36:00,
2016-07-25 00:41:00,75.8,73.9,29.80,South,174,0.0,5.0,94,0.00,,,0.00,VWS V15.00,2016-07-25 04:41:00,
2016-07-25 00:46:00,75.9,74.1,29.80,South,189,3.0,5.0,94,0.00,,,0.00,VWS V15.00,2016-07-25 04:46:00,
2016-07-25 00:51:00,76.0,73.8,29.80,South,174,1.0,5.0,93,0.00,,,0.00,VWS V15.00,2016-07-25 04:51:00,
2016-07-25 00:56:00,76.0,73.8,29.80,South,179,1.0,5.0,93,0.00,,,0.00,VWS V15.00,2016-07-25 04:56:00,
2016-07-25 01:01:00,76.1,73.9,29.80,South,186,1.0,5.0,93,0.00,,,0.00,VWS V15.00,2016-07-25 05:01:00,
2016-07-25 01:06:00,76.2,74.3,29.80,South,179,1.0,2.0,94,0.00,,,0.00,VWS V15.00,2016-07-25 05:06:00,
2016-07-25 01:11:00,76.2,74.3,29.80,SSW,211,1.0,3.0,94,0.00,,,0.00,VWS V15.00,2016-07-25 05:11:00,
2016-07-25 01:16:00,76.4,74.6,29.80,SSW,200,1.0,3.0,94,0.00,,,0.00,VWS V15.00,2016-07-25 05:16:00,
2016-07-25 01:21:00,76.4,74.6,29.79,South,184,1.0,5.0,94,0.00,,,0.00,VWS V15.00,2016-07-25 05:21:00,
2016-07-25 01:26:00,76.5,74.7,29.79,SE,145,1.0,5.0,94,0.00,,,0.00,VWS V15.00,2016-07-25 05:26:00,
2016-07-25 01:31:00,76.7,74.8,29.80,South,178,2.0,8.0,94,0.00,,,0.00,VWS V15.00,2016-07-25 05:31:00,
2016-07-25 01:36:00,77.0,75.1,29.79,SE,134,1.0,5.0,94,0.00,,,0.00,VWS V15.00,2016-07-25 05:36:00,
2016-07-25 01:41:00,77.3,75.4,29.79,SW,224,1.0,5.0,94,0.00,,,0.00,VWS V15.00,2016-07-25 05:41:00,
2016-07-25 01:46:00,77.5,75.6,29.79,SW,221,2.0,7.0,94,0.00,,,0.00,VWS V15.00,2016-07-25 05:46:00,
2016-07-25 01:51:00,77.6,75.4,29.79,SSW,205,1.0,7.0,93,0.00,,,0.00,VWS V15.00,2016-07-25 05:51:00,
2016-07-25 01:56:00,77.8,75.6,29.79,SE,130,1.0,7.0,93,0.00,,,0.00,VWS V15.00,2016-07-25 05:56:00,
2016-07-25 02:02:00,77.8,75.6,29.79,SSE,165,4.0,7.0,93,0.00,,,0.00,VWS V15.00,2016-07-25 06:02:00,
2016-07-25 02:07:00,77.9,75.7,29.79,South,184,3.0,6.0,93,0.00,,,0.00,VWS V15.00,2016-07-25 06:07:00,
2016-07-25 02:12:00,78.0,75.8,29.79,SSW,195,3.0,6.0,93,0.00,,,0.00,VWS V15.00,2016-07-25 06:12:00,
2016-07-25 02:17:00,78.0,75.8,29.79,SSW,211,1.0,6.0,93,0.00,,,0.00,VWS V15.00,2016-07-25 06:17:00,
2016-07-25 02:22:00,77.9,75.7,29.79,SSW,209,1.0,6.0,93,0.00,,,0.00,VWS V15.00,2016-07-25 06:22:00,
2016-07-25 02:27:00,77.9,75.7,29.79,SSE,167,0.0,6.0,93,0.00,,,0.00,VWS V15.00,2016-07-25 06:27:00,
2016-07-25 02:32:00,78.0,75.8,29.79,SSE,168,4.0,6.0,93,0.00,,,0.00,VWS V15.00,2016-07-25 06:32:00,
2016-07-25 02:37:00,78.0,75.8,29.79,South,178,2.0,5.0,93,0.00,,,0.00,VWS V15.00,2016-07-25 06:37:00,
2016-07-25 02:42:00,78.0,75.8,29.78,SSW,203,0.0,5.0,93,0.00,,,0.00,VWS V15.00,2016-07-25 06:42:00,
2016-07-25 02:47:00,78.0,75.8,29.78,SSW,198,3.0,5.0,93,0.00,,,0.00,VWS V15.00,2016-07-25 06:47:00,
2016-07-25 02:52:00,77.9,75.7,29.78,SSW,194,0.0,5.0,93,0.00,,,0.00,VWS V15.00,2016-07-25 06:52:00,
2016-07-25 02:57:00,77.9,75.7,29.79,South,178,2.0,5.0,93,0.00,,,0.00,VWS V15.00,2016-07-25 06:57:00,
2016-07-25 03:02:00,77.8,75.6,29.79,South,169,7.0,7.0,93,0.00,,,0.00,VWS V15.00,2016-07-25 07:02:00,
2016-07-25 03:07:00,77.8,75.6,29.78,SSW,202,2.0,7.0,93,0.00,,,0.00,VWS V15.00,2016-07-25 07:07:00,
2016-07-25 03:12:00,77.8,75.6,29.78,West,276,2.0,7.0,93,0.00,,,0.00,VWS V15.00,2016-07-25 07:12:00,
2016-07-25 03:17:00,77.8,75.6,29.78,West,265,2.0,7.0,93,0.00,,,0.00,VWS V15.00,2016-07-25 07:17:00,
2016-07-25 03:22:00,77.8,75.6,29.78,West,265,0.0,7.0,93,0.00,,,0.00,VWS V15.00,2016-07-25 07:22:00,
2016-07-25 03:27:00,77.7,75.5,29.78,WSW,248,0.0,7.0,93,0.00,,,0.00,VWS V15.00,2016-07-25 07:27:00,
2016-07-25 03:32:00,77.7,75.5,29.78,WSW,247,3.0,3.0,93,0.00,,,0.00,VWS V15.00,2016-07-25 07:32:00,
2016-07-25 03:37:00,77.7,75.5,29.79,SW,215,1.0,4.0,93,0.00,,,0.00,VWS V15.00,2016-07-25 07:37:00,
2016-07-25 03:42:00,77.8,75.6,29.79,WSW,252,0.0,4.0,93,0.00,,,0.00,VWS V15.00,2016-07-25 07:42:00,
2016-07-25 03:47:00,77.9,75.4,29.79,SW,214,1.0,4.0,92,0.00,,,0.00,VWS V15.00,2016-07-25 07:47:00,
2016-07-25 03:52:00,78.1,75.3,29.80,WSW,254,3.0,6.0,91,0.00,,,0.00,VWS V15.00,2016-07-25 07:52:00,
2016-07-25 03:57:00,78.4,75.2,29.80,SW,222,2.0,6.0,90,0.00,,,0.00,VWS V15.00,2016-07-25 07:57:00,
2016-07-25 04:02:00,78.8,75.3,29.80,SE,140,1.0,1.0,89,0.00,,,0.00,VWS V15.00,2016-07-25 08:02:00,
2016-07-25 04:07:00,79.1,74.6,29.80,North,355,2.0,7.0,86,0.00,,,0.00,VWS V15.00,2016-07-25 08:07:00,
2016-07-25 04:13:00,79.5,74.6,29.80,NNW,333,1.0,7.0,85,0.00,,,0.00,VWS V15.00,2016-07-25 08:13:00,
2016-07-25 04:18:00,79.6,74.0,29.80,South,174,2.0,7.0,83,0.00,,,0.00,VWS V15.00,2016-07-25 08:18:00,
2016-07-25 04:23:00,79.7,74.1,29.80,West,277,1.0,7.0,83,0.00,,,0.00,VWS V15.00,2016-07-25 08:23:00,
2016-07-25 04:28:00,79.6,73.6,29.80,NNE,13,5.0,7.0,82,0.00,,,0.00,VWS V15.00,2016-07-25 08:28:00,
2016-07-25 04:33:00,79.5,73.5,29.80,WSW,256,2.0,2.0,82,0.00,,,0.00,VWS V15.00,2016-07-25 08:33:00,
2016-07-25 04:38:00,79.2,72.5,29.79,SW,230,2.0,4.0,80,0.00,,,0.00,VWS V15.00,2016-07-25 08:38:00,
2016-07-25 04:43:00,79.1,72.0,29.81,NW,304,2.0,5.0,79,0.00,,,0.00,VWS V15.00,2016-07-25 08:43:00,
2016-07-25 04:48:00,78.9,72.2,29.80,SSW,201,1.0,5.0,80,0.00,,,0.00,VWS V15.00,2016-07-25 08:48:00,
2016-07-25 04:53:00,78.8,71.7,29.80,WSW,255,1.0,8.0,79,0.00,,,0.00,VWS V15.00,2016-07-25 08:53:00,
2016-07-25 04:58:00,78.7,72.0,29.81,SSW,207,1.0,8.0,80,0.00,,,0.00,VWS V15.00,2016-07-25 08:58:00,
2016-07-25 05:03:00,78.4,71.7,29.81,NNW,333,2.0,2.0,80,0.00,,,0.00,VWS V15.00,2016-07-25 09:03:00,
2016-07-25 05:08:00,78.3,71.3,29.81,SSW,209,0.0,4.0,79,0.00,,,0.00,VWS V15.00,2016-07-25 09:08:00,
2016-07-25 05:13:00,78.1,71.1,29.81,WNW,301,1.0,4.0,79,0.00,,,0.00,VWS V15.00,2016-07-25 09:13:00,
2016-07-25 05:18:00,78.0,71.0,29.80,SSW,212,2.0,4.0,79,0.00,,,0.00,VWS V15.00,2016-07-25 09:18:00,
2016-07-25 05:23:00,77.8,71.1,29.81,West,277,2.0,4.0,80,0.00,,,0.00,VWS V15.00,2016-07-25 09:23:00,
2016-07-25 05:28:00,77.6,70.9,29.81,WSW,242,0.0,4.0,80,0.00,,,0.00,VWS V15.00,2016-07-25 09:28:00,
2016-07-25 05:33:00,77.5,70.8,29.81,WSW,252,0.0,1.0,80,0.00,,,0.00,VWS V15.00,2016-07-25 09:33:00,
2016-07-25 05:38:00,77.4,71.1,29.81,SW,234,1.0,2.0,81,0.00,,,0.00,VWS V15.00,2016-07-25 09:38:00,
2016-07-25 05:43:00,77.1,70.8,29.81,WSW,249,1.0,4.0,81,0.00,,,0.00,VWS V15.00,2016-07-25 09:43:00,
2016-07-25 05:48:00,77.0,70.7,29.82,SW,227,1.0,4.0,81,0.00,,,0.00,VWS V15.00,2016-07-25 09:48:00,
2016-07-25 05:53:00,76.9,70.3,29.82,West,261,1.0,5.0,80,0.00,,,0.00,VWS V15.00,2016-07-25 09:53:00,
2016-07-25 05:58:00,76.8,70.5,29.82,WNW,296,1.0,5.0,81,0.00,,,0.00,VWS V15.00,2016-07-25 09:58:00,
2016-07-25 06:03:00,76.7,70.8,29.82,WSW,238,3.0,3.0,82,0.00,,,0.00,VWS V15.00,2016-07-25 10:03:00,
2016-07-25 06:08:00,76.4,70.9,29.82,WSW,244,0.0,3.0,83,0.00,,,0.00,VWS V15.00,2016-07-25 10:08:00,
2016-07-25 06:14:00,76.1,70.9,29.82,WSW,252,2.0,3.0,84,0.00,,,0.00,VWS V15.00,2016-07-25 10:14:00,
2016-07-25 06:19:00,75.7,70.5,29.82,WSW,238,0.0,4.0,84,0.00,,,0.00,VWS V15.00,2016-07-25 10:19:00,
2016-07-25 06:24:00,75.4,70.6,29.82,SW,229,4.0,4.0,85,0.00,,,0.00,VWS V15.00,2016-07-25 10:24:00,
2016-07-25 06:29:00,75.1,70.3,29.83,WSW,255,1.0,6.0,85,0.00,,,0.00,VWS V15.00,2016-07-25 10:29:00,
2016-07-25 06:34:00,75.0,70.5,29.82,West,276,1.0,1.0,86,0.00,,,0.00,VWS V15.00,2016-07-25 10:34:00,
2016-07-25 06:39:00,74.8,70.3,29.82,West,273,1.0,4.0,86,0.00,,,0.00,VWS V15.00,2016-07-25 10:39:00,
2016-07-25 06:44:00,74.7,70.2,29.82,SW,232,1.0,4.0,86,0.00,,,0.00,VWS V15.00,2016-07-25 10:44:00,
2016-07-25 06:49:00,74.6,70.1,29.81,North,355,2.0,4.0,86,0.00,,,0.00,VWS V15.00,2016-07-25 10:49:00,
2016-07-25 06:54:00,74.4,69.9,29.82,SW,218,0.0,4.0,86,0.00,,,0.00,VWS V15.00,2016-07-25 10:54:00,
2016-07-25 06:59:00,74.4,69.9,29.82,NW,317,2.0,4.0,86,0.00,,,0.00,VWS V15.00,2016-07-25 10:59:00,
2016-07-25 07:04:00,74.2,69.8,29.82,WSW,258,2.0,4.0,86,0.00,,,0.00,VWS V15.00,2016-07-25 11:04:00,
2016-07-25 07:09:00,74.2,70.1,29.82,West,265,2.0,4.0,87,0.00,,,0.00,VWS V15.00,2016-07-25 11:09:00,
2016-07-25 07:14:00,74.2,69.8,29.82,WSW,252,1.0,6.0,86,0.00,,,0.00,VWS V15.00,2016-07-25 11:14:00,
2016-07-25 07:19:00,74.2,69.4,29.82,WNW,303,1.0,6.0,85,0.00,,,0.00,VWS V15.00,2016-07-25 11:19:00,
2016-07-25 07:24:00,74.2,69.8,29.82,SSE,152,0.0,6.0,86,0.00,,,0.00,VWS V15.00,2016-07-25 11:24:00,
2016-07-25 07:29:00,74.2,69.4,29.82,WSW,250,1.0,6.0,85,0.00,,,0.00,VWS V15.00,2016-07-25 11:29:00,
2016-07-25 07:34:00,74.2,69.8,29.82,West,259,0.0,1.0,86,0.00,,,0.00,VWS V15.00,2016-07-25 11:34:00,
2016-07-25 07:39:00,74.3,69.8,29.83,WSW,252,0.0,4.0,86,0.00,,,0.00,VWS V15.00,2016-07-25 11:39:00,
2016-07-25 07:44:00,74.3,69.5,29.83,West,277,1.0,4.0,85,0.00,,,0.00,VWS V15.00,2016-07-25 11:44:00,
2016-07-25 07:49:00,74.4,69.6,29.83,WNW,286,2.0,4.0,85,0.00,,,0.00,VWS V15.00,2016-07-25 11:49:00,
2016-07-25 07:54:00,74.4,69.6,29.83,NNW,331,0.0,7.0,85,0.00,,,0.00,VWS V15.00,2016-07-25 11:54:00,
2016-07-25 07:59:00,74.5,69.7,29.83,NNW,341,2.0,7.0,85,0.00,,,0.00,VWS V15.00,2016-07-25 11:59:00,
2016-07-25 08:04:00,74.5,70.0,29.83,WNW,294,2.0,3.0,86,0.00,,,0.00,VWS V15.00,2016-07-25 12:04:00,
2016-07-25 08:09:00,74.6,69.8,29.83,North,355,1.0,3.0,85,0.00,,,0.00,VWS V15.00,2016-07-25 12:09:00,
2016-07-25 08:14:00,74.7,70.2,29.84,WSW,238,3.0,3.0,86,0.00,,,0.00,VWS V15.00,2016-07-25 12:14:00,
2016-07-25 08:20:00,74.9,70.1,29.84,WNW,303,3.0,8.0,85,0.00,,,0.00,VWS V15.00,2016-07-25 12:20:00,
2016-07-25 08:25:00,75.1,70.3,29.84,SSE,167,0.0,8.0,85,0.00,,,0.00,VWS V15.00,2016-07-25 12:25:00,
2016-07-25 08:30:00,75.2,70.0,29.84,NNW,345,1.0,8.0,84,0.00,,,0.00,VWS V15.00,2016-07-25 12:30:00,
2016-07-25 08:35:00,75.3,70.5,29.84,WSW,245,2.0,3.0,85,0.00,,,0.00,VWS V15.00,2016-07-25 12:35:00,
2016-07-25 08:40:00,75.3,70.1,29.84,SE,132,0.0,4.0,84,0.00,,,0.00,VWS V15.00,2016-07-25 12:40:00,
2016-07-25 08:45:00,75.3,70.5,29.84,SSW,194,1.0,4.0,85,0.00,,,0.00,VWS V15.00,2016-07-25 12:45:00,
2016-07-25 08:50:00,75.3,70.1,29.84,West,276,1.0,4.0,84,0.00,,,0.00,VWS V15.00,2016-07-25 12:50:00,
2016-07-25 08:55:00,75.3,70.1,29.84,West,265,1.0,4.0,84,0.00,,,0.00,VWS V15.00,2016-07-25 12:55:00,
2016-07-25 09:00:00,75.4,70.2,29.84,WSW,249,0.0,4.0,84,0.00,,,0.00,VWS V15.00,2016-07-25 13:00:00,
2016-07-25 09:05:00,75.5,70.3,29.84,West,279,1.0,1.0,84,0.00,,,0.00,VWS V15.00,2016-07-25 13:05:00,
2016-07-25 09:10:00,75.6,70.4,29.84,NNE,17,1.0,3.0,84,0.00,,,0.00,VWS V15.00,2016-07-25 13:10:00,
2016-07-25 09:15:00,75.7,70.9,29.84,NW,321,1.0,4.0,85,0.00,,,0.00,VWS V15.00,2016-07-25 13:15:00,
2016-07-25 09:20:00,75.8,71.0,29.84,NNE,24,1.0,4.0,85,0.00,,,0.00,VWS V15.00,2016-07-25 13:20:00,
2016-07-25 09:25:00,75.7,70.5,29.84,NNE,13,1.0,6.0,84,0.00,,,0.00,VWS V15.00,2016-07-25 13:25:00,
2016-07-25 09:30:00,75.8,71.0,29.84,WNW,283,1.0,6.0,85,0.00,,,0.00,VWS V15.00,2016-07-25 13:30:00,
2016-07-25 09:35:00,75.8,71.0,29.84,ESE,119,1.0,3.0,85,0.00,,,0.00,VWS V15.00,2016-07-25 13:35:00,
2016-07-25 09:40:00,75.8,71.0,29.84,WNW,297,3.0,3.0,85,0.00,,,0.00,VWS V15.00,2016-07-25 13:40:00,
2016-07-25 09:45:00,76.0,70.8,29.84,SW,220,1.0,4.0,84,0.00,,,0.00,VWS V15.00,2016-07-25 13:45:00,
2016-07-25 09:50:00,76.1,70.9,29.84,WSW,257,1.0,4.0,84,0.00,,,0.00,VWS V15.00,2016-07-25 13:50:00,
2016-07-25 09:55:00,76.3,71.1,29.85,WNW,284,2.0,5.0,84,0.00,,,0.00,VWS V15.00,2016-07-25 13:55:00,
2016-07-25 10:00:00,76.4,71.2,29.85,SW,219,2.0,5.0,84,0.00,,,0.00,VWS V15.00,2016-07-25 14:00:00,
2016-07-25 10:06:00,76.6,71.8,29.85,WSW,251,1.0,2.0,85,0.00,,,0.00,VWS V15.00,2016-07-25 14:06:00,
2016-07-25 10:11:00,76.9,71.7,29.85,SSW,198,1.0,4.0,84,0.00,,,0.00,VWS V15.00,2016-07-25 14:11:00,
2016-07-25 10:16:00,77.3,71.4,29.85,NE,51,1.0,4.0,82,0.00,,,0.00,VWS V15.00,2016-07-25 14:16:00,
2016-07-25 10:21:00,77.7,71.8,29.85,SW,222,3.0,5.0,82,0.00,,,0.00,VWS V15.00,2016-07-25 14:21:00,
2016-07-25 10:26:00,77.8,71.9,29.85,WSW,257,0.0,5.0,82,0.00,,,0.00,VWS V15.00,2016-07-25 14:26:00,
2016-07-25 10:31:00,78.3,72.7,29.85,WSW,252,0.0,5.0,83,0.00,,,0.00,VWS V15.00,2016-07-25 14:31:00,
2016-07-25 10:36:00,79.0,72.7,29.85,WNW,284,1.0,5.0,81,0.00,,,0.00,VWS V15.00,2016-07-25 14:36:00,
2016-07-25 10:41:00,79.5,72.8,29.85,SW,223,0.0,5.0,80,0.00,,,0.00,VWS V15.00,2016-07-25 14:41:00,
2016-07-25 10:46:00,79.9,71.7,29.85,SW,229,4.0,6.0,76,0.00,,,0.00,VWS V15.00,2016-07-25 14:46:00,
2016-07-25 10:51:00,80.2,71.9,29.85,WSW,240,5.0,6.0,76,0.00,,,0.00,VWS V15.00,2016-07-25 14:51:00,
2016-07-25 10:56:00,80.7,72.8,29.85,SW,220,2.0,7.0,77,0.00,,,0.00,VWS V15.00,2016-07-25 14:56:00,
2016-07-25 11:01:00,81.1,71.6,29.85,NNW,339,1.0,7.0,73,0.00,,,0.00,VWS V15.00,2016-07-25 15:01:00,
2016-07-25 11:06:00,81.6,72.9,29.85,WSW,238,0.0,4.0,75,0.00,,,0.00,VWS V15.00,2016-07-25 15:06:00,
2016-07-25 11:11:00,82.2,72.7,29.85,SSW,200,1.0,4.0,73,0.00,,,0.00,VWS V15.00,2016-07-25 15:11:00,
2016-07-25 11:16:00,82.7,72.3,29.85,North,5,4.0,4.0,71,0.00,,,0.00,VWS V15.00,2016-07-25 15:16:00,
2016-07-25 11:21:00,83.0,72.2,29.85,South,172,1.0,4.0,70,0.00,,,0.00,VWS V15.00,2016-07-25 15:21:00,
2016-07-25 11:26:00,83.4,71.7,29.85,NNW,335,1.0,5.0,68,0.00,,,0.00,VWS V15.00,2016-07-25 15:26:00,
2016-07-25 11:31:00,83.6,70.6,29.85,North,360,2.0,5.0,65,0.00,,,0.00,VWS V15.00,2016-07-25 15:31:00,
2016-07-25 11:36:00,83.9,72.7,29.85,SE,124,0.0,3.0,69,0.00,,,0.00,VWS V15.00,2016-07-25 15:36:00,
2016-07-25 11:41:00,84.2,72.1,29.85,SSW,202,2.0,4.0,67,0.00,,,0.00,VWS V15.00,2016-07-25 15:41:00,
2016-07-25 11:46:00,84.5,71.0,29.85,West,263,3.0,6.0,64,0.00,,,0.00,VWS V15.00,2016-07-25 15:46:00,
2016-07-25 11:52:00,84.6,70.2,29.85,SSW,213,4.0,7.0,62,0.00,,,0.00,VWS V15.00,2016-07-25 15:52:00,
2016-07-25 11:57:00,84.6,71.1,29.85,WSW,251,2.0,9.0,64,0.00,,,0.00,VWS V15.00,2016-07-25 15:57:00,
2016-07-25 12:02:00,84.7,70.7,29.85,SW,229,2.0,9.0,63,0.00,,,0.00,VWS V15.00,2016-07-25 16:02:00,
2016-07-25 12:07:00,84.7,70.2,29.85,NW,325,1.0,8.0,62,0.00,,,0.00,VWS V15.00,2016-07-25 16:07:00,
2016-07-25 12:12:00,84.9,70.0,29.86,North,5,1.0,8.0,61,0.00,,,0.00,VWS V15.00,2016-07-25 16:12:00,
2016-07-25 12:17:00,85.0,70.1,29.86,NW,306,2.0,8.0,61,0.00,,,0.00,VWS V15.00,2016-07-25 16:17:00,
2016-07-25 12:22:00,84.9,70.0,29.86,South,171,0.0,11.0,61,0.00,,,0.00,VWS V15.00,2016-07-25 16:22:00,
2016-07-25 12:27:00,85.1,70.2,29.85,South,188,3.0,11.0,61,0.00,,,0.00,VWS V15.00,2016-07-25 16:27:00,
2016-07-25 12:32:00,85.4,69.4,29.86,WNW,288,2.0,2.0,59,0.00,,,0.00,VWS V15.00,2016-07-25 16:32:00,
2016-07-25 12:37:00,85.3,69.8,29.86,West,265,0.0,6.0,60,0.00,,,0.00,VWS V15.00,2016-07-25 16:37:00,
2016-07-25 12:42:00,85.5,71.0,29.86,WNW,282,3.0,8.0,62,0.00,,,0.00,VWS V15.00,2016-07-25 16:42:00,
2016-07-25 12:47:00,85.4,69.4,29.86,South,174,5.0,8.0,59,0.00,,,0.00,VWS V15.00,2016-07-25 16:47:00,
2016-07-25 12:52:00,85.8,70.3,29.86,North,5,2.0,8.0,60,0.00,,,0.00,VWS V15.00,2016-07-25 16:52:00,
2016-07-25 12:57:00,85.6,68.6,29.86,West,281,2.0,8.0,57,0.00,,,0.00,VWS V15.00,2016-07-25 16:57:00,
2016-07-25 13:02:00,85.4,68.4,29.85,NNW,346,2.0,2.0,57,0.00,,,0.00,VWS V15.00,2016-07-25 17:02:00,
2016-07-25 13:07:00,85.6,68.6,29.85,NNW,348,2.0,4.0,57,0.00,,,0.00,VWS V15.00,2016-07-25 17:07:00,
2016-07-25 13:12:00,85.7,68.2,29.86,North,355,2.0,4.0,56,0.00,,,0.00,VWS V15.00,2016-07-25 17:12:00,
2016-07-25 13:17:00,85.9,67.9,29.85,NW,304,1.0,6.0,55,0.00,,,0.00,VWS V15.00,2016-07-25 17:17:00,
2016-07-25 13:22:00,86.0,70.5,29.85,East,85,1.0,6.0,60,0.00,,,0.00,VWS V15.00,2016-07-25 17:22:00,
2016-07-25 13:27:00,86.3,70.3,29.85,SSW,204,1.0,6.0,59,0.00,,,0.00,VWS V15.00,2016-07-25 17:27:00,
2016-07-25 13:32:00,86.7,70.2,29.85,South,178,3.0,4.0,58,0.00,,,0.00,VWS V15.00,2016-07-25 17:32:00,
2016-07-25 13:37:00,87.2,68.5,29.85,SW,225,3.0,7.0,54,0.00,,,0.00,VWS V15.00,2016-07-25 17:37:00,
2016-07-25 13:42:00,87.2,70.1,29.85,West,267,4.0,10.0,57,0.00,,,0.00,VWS V15.00,2016-07-25 17:42:00,
2016-07-25 13:47:00,87.1,68.4,29.85,North,355,2.0,10.0,54,0.00,,,0.00,VWS V15.00,2016-07-25 17:47:00,
2016-07-25 13:52:00,87.1,67.9,29.85,SW,233,2.0,10.0,53,0.00,,,0.00,VWS V15.00,2016-07-25 17:52:00,
2016-07-25 13:57:00,87.3,69.7,29.85,SSW,213,6.0,10.0,56,0.00,,,0.00,VWS V15.00,2016-07-25 17:57:00,
2016-07-25 14:02:00,87.6,68.9,29.85,WNW,283,1.0,2.0,54,0.00,,,0.00,VWS V15.00,2016-07-25 18:02:00,
2016-07-25 14:07:00,87.9,67.5,29.85,SW,233,3.0,5.0,51,0.00,,,0.00,VWS V15.00,2016-07-25 18:07:00,
2016-07-25 14:13:00,87.9,66.9,29.85,WSW,238,0.0,6.0,50,0.00,,,0.00,VWS V15.00,2016-07-25 18:13:00,
2016-07-25 14:18:00,87.9,66.4,29.85,East,81,2.0,6.0,49,0.00,,,0.00,VWS V15.00,2016-07-25 18:18:00,
2016-07-25 14:23:00,87.5,69.9,29.85,SE,134,1.0,6.0,56,0.00,,,0.00,VWS V15.00,2016-07-25 18:23:00,
2016-07-25 14:28:00,87.7,67.9,29.85,SW,228,1.0,6.0,52,0.00,,,0.00,VWS V15.00,2016-07-25 18:28:00,
2016-07-25 14:33:00,88.0,67.1,29.85,NNE,26,1.0,5.0,50,0.00,,,0.00,VWS V15.00,2016-07-25 18:33:00,
2016-07-25 14:38:00,87.8,67.4,29.85,WNW,292,3.0,5.0,51,0.00,,,0.00,VWS V15.00,2016-07-25 18:38:00,
2016-07-25 14:43:00,87.5,68.8,29.85,NE,55,1.0,5.0,54,0.00,,,0.00,VWS V15.00,2016-07-25 18:43:00,
2016-07-25 14:48:00,87.1,68.4,29.85,WSW,246,1.0,5.0,54,0.00,,,0.00,VWS V15.00,2016-07-25 18:48:00,
2016-07-25 14:53:00,87.0,67.3,29.85,West,279,0.0,5.0,52,0.00,,,0.00,VWS V15.00,2016-07-25 18:53:00,
2016-07-25 14:58:00,87.2,66.9,29.85,NW,313,2.0,6.0,51,0.00,,,0.00,VWS V15.00,2016-07-25 18:58:00,
2016-07-25 15:03:00,87.5,66.0,29.85,NNW,348,1.0,5.0,49,0.00,,,0.00,VWS V15.00,2016-07-25 19:03:00,
2016-07-25 15:08:00,87.9,65.8,29.85,SSW,203,5.0,8.0,48,0.00,,,0.00,VWS V15.00,2016-07-25 19:08:00,
2016-07-25 15:13:00,88.1,66.0,29.85,SSW,194,3.0,8.0,48,0.00,,,0.00,VWS V15.00,2016-07-25 19:13:00,
2016-07-25 15:18:00,88.1,66.6,29.85,NNW,345,2.0,8.0,49,0.00,,,0.00,VWS V15.00,2016-07-25 19:18:00,
2016-07-25 15:23:00,88.1,67.7,29.85,NW,325,1.0,8.0,51,0.00,,,0.00,VWS V15.00,2016-07-25 19:23:00,
2016-07-25 15:28:00,88.4,66.8,29.84,NNW,329,3.0,8.0,49,0.00,,,0.00,VWS V15.00,2016-07-25 19:28:00,
2016-07-25 15:33:00,88.7,67.7,29.84,North,355,2.0,2.0,50,0.00,,,0.00,VWS V15.00,2016-07-25 19:33:00,
2016-07-25 15:38:00,88.6,65.8,29.84,SW,235,1.0,5.0,47,0.00,,,0.00,VWS V15.00,2016-07-25 19:38:00,
2016-07-25 15:43:00,88.7,67.7,29.84,SW,215,1.0,5.0,50,0.00,,,0.00,VWS V15.00,2016-07-25 19:43:00,
2016-07-25 15:48:00,88.3,66.7,29.84,NW,321,1.0,8.0,49,0.00,,,0.00,VWS V15.00,2016-07-25 19:48:00,
2016-07-25 15:53:00,88.0,65.3,29.84,SSW,213,2.0,8.0,47,0.00,,,0.00,VWS V15.00,2016-07-25 19:53:00,
2016-07-25 15:58:00,87.6,66.7,29.84,WNW,296,0.0,8.0,50,0.00,,,0.00,VWS V15.00,2016-07-25 19:58:00,
2016-07-25 16:03:00,87.5,67.7,29.84,NW,309,1.0,2.0,52,0.00,,,0.00,VWS V15.00,2016-07-25 20:03:00,
2016-07-25 16:09:00,87.7,66.8,29.84,West,276,2.0,4.0,50,0.00,,,0.00,VWS V15.00,2016-07-25 20:09:00,
2016-07-25 16:14:00,88.3,68.5,29.84,WSW,238,2.0,4.0,52,0.00,,,0.00,VWS V15.00,2016-07-25 20:14:00,
2016-07-25 16:17:00,88.7,68.8,29.84,NE,53,1.0,4.0,52,0.00,,,0.00,VWS V15.00,2016-07-25 20:17:00,
2016-07-25 16:22:00,88.9,67.9,29.84,ESE,103,1.0,5.0,50,0.00,,,0.00,VWS V15.00,2016-07-25 20:22:00,
2016-07-25 16:27:00,89.0,66.8,29.84,NNW,343,1.0,5.0,48,0.00,,,0.00,VWS V15.00,2016-07-25 20:27:00,
2016-07-25 16:32:00,89.0,65.6,29.84,NNW,333,1.0,1.0,46,0.00,,,0.00,VWS V15.00,2016-07-25 20:32:00,
2016-07-25 16:37:00,88.9,69.0,29.84,SE,124,1.0,5.0,52,0.00,,,0.00,VWS V15.00,2016-07-25 20:37:00,
2016-07-25 16:42:00,88.8,65.4,29.83,NNE,30,1.0,5.0,46,0.00,,,0.00,VWS V15.00,2016-07-25 20:42:00,
2016-07-25 16:47:00,88.8,67.2,29.83,NNW,342,1.0,6.0,49,0.00,,,0.00,VWS V15.00,2016-07-25 20:47:00,
2016-07-25 16:52:00,88.4,65.6,29.83,WNW,284,1.0,6.0,47,0.00,,,0.00,VWS V15.00,2016-07-25 20:52:00,
2016-07-25 16:57:00,88.4,66.8,29.83,South,171,2.0,6.0,49,0.00,,,0.00,VWS V15.00,2016-07-25 20:57:00,
2016-07-25 17:02:00,88.7,66.5,29.83,West,271,1.0,1.0,48,0.00,,,0.00,VWS V15.00,2016-07-25 21:02:00,
2016-07-25 17:07:00,88.9,67.3,29.83,SW,235,2.0,3.0,49,0.00,,,0.00,VWS V15.00,2016-07-25 21:07:00,
2016-07-25 17:12:00,88.7,67.1,29.83,NNE,23,2.0,4.0,49,0.00,,,0.00,VWS V15.00,2016-07-25 21:12:00,
2016-07-25 17:17:00,88.4,66.2,29.83,North,9,2.0,4.0,48,0.00,,,0.00,VWS V15.00,2016-07-25 21:17:00,
2016-07-25 17:22:00,88.3,66.7,29.83,NW,322,2.0,7.0,49,0.00,,,0.00,VWS V15.00,2016-07-25 21:22:00,
2016-07-25 17:27:00,88.3,66.7,29.83,SSW,194,2.0,7.0,49,0.00,,,0.00,VWS V15.00,2016-07-25 21:27:00,
2016-07-25 17:32:00,88.4,67.4,29.83,SSW,193,1.0,2.0,50,0.00,,,0.00,VWS V15.00,2016-07-25 21:32:00,
2016-07-25 17:37:00,88.5,66.3,29.83,ENE,57,1.0,4.0,48,0.00,,,0.00,VWS V15.00,2016-07-25 21:37:00,
2016-07-25 17:42:00,88.4,67.4,29.83,NNE,28,2.0,4.0,50,0.00,,,0.00,VWS V15.00,2016-07-25 21:42:00,
2016-07-25 17:47:00,88.5,66.3,29.83,North,360,1.0,4.0,48,0.00,,,0.00,VWS V15.00,2016-07-25 21:47:00,
2016-07-25 17:52:00,88.4,67.4,29.83,NNW,338,2.0,5.0,50,0.00,,,0.00,VWS V15.00,2016-07-25 21:52:00,
2016-07-25 17:58:00,88.1,66.6,29.83,East,84,2.0,10.0,49,0.00,,,0.00,VWS V15.00,2016-07-25 21:58:00,
2016-07-25 18:03:00,88.0,67.1,29.83,SSW,200,0.0,1.0,50,0.00,,,0.00,VWS V15.00,2016-07-25 22:03:00,